Flag for France Weather past 2 weeks in Bastia, Corsica, France

Now
84 °F

Passing clouds.


Feels Like: 91 °F
Forecast: 68 / 85 °F
Wind: 10 mph from Southeast

Location: Bastia Airport

Current Time: Aug 30, 2015 at 4:26:37 PM

Latest Report: Aug 30, 2015 at 4:00 PM


Visibility: N/A

Pressure: 30.12 "Hg

Humidity: 70%

Dew point: 73 °F

Location of BastiaLocation

Historic Weather in Bastia — Graph

°F

Bastia temperature yesterday

Maximum temperature yesterday: 84 °F (at 11:30 AM)
Minimum temperature yesterday: 64 °F (at 4:00 AM)
Average temperature yesterday: 74 °F

Past Weeks' High & Low Weather Summary

 TemperatureHumidityPressure
High86 °F (Aug 25, 1:30 PM)94% (Aug 18, 7:30 PM)30.18 "Hg (Aug 18, 7:30 PM)
Low61 °F (Aug 18, 3:00 AM)37% (Aug 17, 1:30 PM)29.77 "Hg (Aug 15, 5:30 PM)
Average74 °F70%29.97 "Hg
* Reported Aug 15 3:00 PM — Aug 30 3:00 PM, Bastia, Weather by CustomWeather, © 2015

Note: Actual official high and low records may vary slightly from our data, if they occured in-between our weather recording intervals... More about our weather records

Advertising

Bastia weather history for previous 24 hours

 ConditionsComfort  
Time TempWeatherWind HumidityBarometerVisibility
3:00 PM
Sun, Aug 30
84 °FPassing clouds.10 mph66%30.12 "HgN/A
2:30 PM84 °FPassing clouds.9 mph66%30.12 "HgN/A
2:00 PM84 °FPassing clouds.9 mph66%30.12 "HgN/A
1:30 PM84 °FPassing clouds.9 mph66%30.12 "HgN/A
1:00 PM84 °FSunny.9 mph66%30.15 "Hg10 mi
12:30 PM84 °FPassing clouds.9 mph62%30.15 "HgN/A
12:00 PM84 °FPassing clouds.6 mph58%30.15 "HgN/A
11:30 AM84 °FPassing clouds.5 mph48%30.15 "HgN/A
11:00 AM82 °FSunny.No wind48%30.15 "Hg10 mi
10:30 AM81 °FPassing clouds.5 mph48%30.15 "HgN/A
10:00 AM79 °FSunny.2 mph42%30.15 "Hg10 mi
9:30 AM75 °FSunny.3 mph50%30.15 "Hg10 mi
9:00 AM73 °FSunny.3 mph53%30.15 "Hg10 mi
8:30 AM70 °FSunny.3 mph53%30.15 "Hg10 mi
8:00 AM68 °FSunny.6 mph53%30.15 "Hg10 mi
7:30 AM64 °FClear.5 mph60%30.12 "Hg10 mi
7:00 AM64 °FClear.7 mph60%30.12 "Hg10 mi
6:30 AM63 °FClear.8 mph64%30.12 "Hg10 mi
6:00 AM61 °FClear.5 mph72%30.12 "Hg10 mi
5:30 AM61 °FClear.5 mph77%30.12 "Hg10 mi
5:00 AM61 °FClear.6 mph77%30.12 "Hg10 mi
4:30 AM61 °FClear.5 mph77%30.12 "Hg10 mi
4:00 AM61 °FClear.2 mph77%30.12 "Hg10 mi
3:30 AM63 °FClear.3 mph73%30.12 "Hg10 mi
3:00 AM63 °FClear.3 mph77%30.12 "Hg10 mi
2:30 AM63 °FClear.5 mph77%30.12 "Hg10 mi
2:00 AM64 °FClear.5 mph73%30.15 "Hg10 mi
1:30 AM64 °FClear.5 mph78%30.15 "Hg10 mi
1:00 AM64 °FClear.3 mph78%30.15 "Hg10 mi
12:30 AM64 °FClear.3 mph78%30.15 "Hg10 mi
12:00 AM66 °FClear.5 mph78%30.15 "Hg10 mi
11:00 PM
Sat, Aug 29
66 °FClear.3 mph78%30.15 "Hg10 mi
10:30 PM66 °FClear.5 mph83%30.15 "Hg10 mi
10:00 PM68 °FClear.3 mph83%30.15 "Hg10 mi
9:30 PM68 °FClear.3 mph83%30.12 "Hg10 mi
9:00 PM70 °FSunny.3 mph78%30.12 "Hg10 mi
8:30 PM73 °FSunny.2 mph69%30.12 "Hg10 mi
8:00 PM75 °FSunny.1 mph69%30.12 "Hg10 mi
7:30 PM79 °FSunny.3 mph65%30.12 "Hg10 mi
7:00 PM81 °FPassing clouds.3 mph62%30.12 "HgN/A
6:30 PM81 °FSunny.7 mph62%30.12 "Hg10 mi
6:00 PM82 °FSunny.2 mph58%30.12 "Hg10 mi
5:30 PM82 °FSunny.8 mph58%30.12 "Hg10 mi
5:00 PM82 °FSunny.9 mph58%30.12 "Hg10 mi
4:30 PM84 °FPassing clouds.9 mph58%30.12 "HgN/A
4:00 PM84 °FPassing clouds.9 mph58%30.12 "HgN/A
Weather by CustomWeather, © 2015

See weather overviewHow to use our weather pages